Vorticity
nan nan nan nan nan nan nan nan nan nan nan nan nan nan nan nan nan nan nan nan nan nan nan nan nan nan nan nan nan nan nan nan nan nan nan nan nan nan nan nan nan nan nan nan
nan 9 9 7 6 2 4 6 10 7 10 6 6 7 10 13 13 11 9 8 8 8 7 8 8 7 7 7 7 8 8 7 5 4 8 9 7 7 7 7 9 9 7 nan
nan 9 10 4 3 5 3 8 9 8 10 10 10 16 12 13 14 16 10 11 10 7 7 6 7 9 7 7 8 8 8 8 7 4 6 7 7 8 9 8 9 10 9 nan
nan 2 8 10 2 7 7 10 10 10 4 8 12 12 17 17 11 16 18 14 12 10 8 8 8 5 7 8 8 8 8 7 8 8 6 7 4 7 8 8 8 9 10 nan
nan 6 6 4 6 4 7 5 7 8 6 10 14 3 12 9 8 11 18 22 19 12 11 8 8 7 9 8 10 8 9 7 8 7 5 7 6 5 8 11 10 9 8 nan
nan 10 14 11 8 3 6 8 5 4 10 11 8 8 7 3 5 7 11 19 20 18 13 11 8 11 8 6 10 12 9 7 8 7 8 6 7 6 6 9 9 8 8 nan
nan 4 4 14 13 10 4 3 7 12 7 9 8 8 9 1 6 8 9 13 16 18 18 14 11 11 9 8 6 8 9 8 8 8 8 8 7 8 7 6 9 9 9 nan
nan 8 7 4 6 9 6 2 10 7 2 11 9 7 2 9 13 16 13 9 13 17 16 15 13 10 11 10 8 8 8 8 8 8 8 9 7 5 10 8 7 10 9 nan
nan 9 16 6 2 8 9 9 3 10 12 5 5 11 7 9 7 9 15 16 12 14 15 13 11 10 10 11 10 8 8 9 9 8 8 8 9 7 8 9 6 9 9 nan
nan 13 13 11 6 2 0 14 14 4 7 9 8 10 15 1 3 4 10 19 14 12 12 12 11 10 9 10 10 9 9 8 9 8 8 9 9 9 7 9 10 8 8 nan
nan 11 8 10 12 3 6 1 -4 3 10 11 8 6 9 5 4 4 7 14 18 15 11 10 10 11 10 10 9 10 9 10 8 9 9 8 9 9 9 8 9 9 10 nan
nan 6 10 7 13 12 7 8 4 6 4 1 5 7 5 1 6 10 10 11 16 17 12 11 11 10 10 10 9 10 9 9 9 10 9 9 9 10 9 9 8 9 10 nan
nan 3 10 12 9 9 10 6 6 5 8 3 7 6 1 1 5 11 16 17 15 14 15 11 10 10 10 10 10 10 9 10 10 9 9 10 9 9 8 10 11 8 9 nan
nan 5 4 7 5 10 9 8 8 4 6 6 2 2 1 7 6 4 10 20 19 14 11 11 12 11 11 10 10 10 11 11 10 9 9 9 9 9 11 10 11 10 9 nan
nan 7 8 5 6 7 12 12 7 8 4 2 4 4 -0 3 11 9 9 18 16 15 10 11 12 12 11 10 10 10 10 11 10 9 9 9 9 11 10 11 11 11 9 nan
nan 3 14 16 13 9 11 9 11 12 8 8 5 2 6 6 7 10 10 10 17 14 10 10 13 12 11 9 9 11 10 10 10 10 9 9 10 11 10 11 10 10 11 nan
nan 9 12 19 21 14 11 15 10 7 9 12 13 11 7 9 4 4 7 10 18 17 16 12 11 10 11 11 10 11 11 10 10 9 10 9 11 10 10 9 10 11 10 nan
nan 8 5 14 19 13 14 20 22 14 14 18 11 7 7 9 9 7 13 15 18 18 17 13 13 13 12 10 11 11 11 10 10 10 10 10 10 10 10 10 10 9 9 nan
nan 11 8 11 5 6 16 5 18 22 7 8 23 20 14 12 13 11 14 9 13 20 19 14 12 13 13 11 11 10 11 9 9 7 9 12 11 10 9 9 9 8 9 nan
nan 6 9 9 6 9 3 8 14 19 5 -7 14 15 13 17 15 0 -2 12 18 23 18 15 14 15 12 12 10 10 9 8 9 10 9 8 11 11 10 11 7 8 10 nan
nan 10 14 7 6 5 -2 14 19 10 -4 4 11 11 12 11 8 10 7 13 17 17 18 16 17 15 14 12 10 8 9 10 10 9 10 11 11 9 8 9 10 8 10 nan
nan 13 14 14 19 4 8 21 8 11 6 10 13 12 11 10 10 13 17 14 10 16 17 15 15 14 13 11 8 8 8 10 11 10 10 10 9 8 12 9 9 9 8 nan
nan 7 9 14 24 19 12 12 11 8 9 8 12 12 13 13 12 12 15 18 14 13 14 14 13 12 12 11 9 7 10 11 10 9 9 9 8 10 10 10 8 8 8 nan
nan 7 15 14 11 2 2 2 5 8 8 7 8 11 13 12 11 12 13 15 18 17 16 15 12 11 11 12 9 9 13 11 10 9 8 9 8 8 8 8 9 9 8 nan
nan 15 12 16 9 11 1 -7 4 8 5 6 8 8 10 13 11 12 13 13 16 18 15 17 17 15 12 13 13 13 12 11 8 9 10 8 9 11 7 9 9 11 9 nan
nan nan nan nan nan nan nan nan nan nan nan nan nan nan nan nan nan nan nan nan nan nan nan nan nan nan nan nan nan nan nan nan nan nan nan nan nan nan nan nan nan nan nan nan
CAPE
514 434 531 532 814 724 704 712 630 591 518 379 400 401 341 303 724 754 720 983 1230 1110 1125 1066 1385 1464 1602 1536 1577 1628 1554 1535 1417 1313 1156 891 474 240 352 364 5 359 682 899
419 338 249 798 757 687 648 566 541 546 437 439 415 460 477 470 504 826 847 824 1047 1372 1339 1291 1288 1414 1633 1753 1778 1853 1746 1737 1600 1382 1324 1056 688 368 269 218 118 109 269 596
99 50 187 331 777 679 555 404 498 558 523 730 818 719 752 596 547 592 814 811 823 975 1385 1276 1177 1255 1608 1811 1899 2009 2017 1915 1709 1589 1494 1180 808 820 475 378 192 203 287 360
0 56 170 96 503 592 468 281 319 551 596 481 673 415 217 343 442 422 591 767 808 868 927 1353 1400 1534 1612 1763 1992 2020 2164 2124 1839 1680 1322 1188 1008 866 649 429 267 124 172 175
0 0 42 284 404 503 515 449 394 500 543 477 582 409 163 730 221 209 327 449 547 836 821 904 1125 1441 1613 1749 2058 2094 2255 2236 2045 1803 1552 1215 1272 774 1154 701 622 583 217 24
0 32 18 4 117 374 465 551 518 479 422 378 443 341 169 174 84 128 272 397 459 485 611 891 1060 1392 1727 1651 1739 2157 2348 2362 2256 1931 1632 1567 1416 936 793 1119 841 555 177 194
0 16 63 159 272 370 587 515 522 412 594 442 414 287 328 40 64 158 185 377 492 586 582 561 1040 1259 1791 1790 1927 2129 2346 2462 2337 2151 1860 1434 1565 1125 821 1548 1795 1127 294 113
0 3 37 166 364 392 495 566 475 261 331 400 574 343 236 57 75 126 312 456 541 690 648 704 972 1248 1750 1873 2090 2179 2286 2524 2394 2242 2222 1878 1626 1541 2171 1764 1857 1624 727 579
0 0 0 11 245 503 610 642 454 370 249 333 275 398 269 128 54 11 50 414 651 822 745 847 1014 1365 1696 1891 2208 2309 2338 2487 2405 2243 2248 1979 1797 1760 1484 1511 1710 2323 1464 888
0 0 0 0 35 281 485 480 474 340 246 363 298 415 269 118 13 6 0 61 524 909 884 846 980 1169 1531 1958 2170 2261 2330 2479 2342 2117 2030 1918 1639 1757 1682 1522 1549 1472 1851 1122
0 0 0 2 67 93 302 484 461 264 373 326 354 266 209 130 20 2 3 8 128 691 960 964 1008 1097 1364 1779 1906 2202 2277 2320 2292 2169 1969 1845 1568 1508 1585 1353 1534 1568 1706 1397
0 0 0 0 0 3 235 314 320 411 199 309 202 181 48 41 0 130 167 113 199 579 753 947 965 1165 1232 1605 1764 2035 2179 2204 2221 2185 2029 1961 1594 1475 1383 1520 1482 1661 1818 1374
0 0 0 0 0 0 4 153 257 295 192 289 324 283 102 7 0 0 0 61 358 862 748 814 865 1137 1248 1522 1689 1867 2120 2113 2105 2196 1825 1784 1485 1421 1247 1344 1577 1494 1598 1538
0 0 0 0 0 0 0 0 32 195 266 244 218 188 35 9 2 0 2 127 402 1044 1087 953 893 1046 1365 1600 1810 1953 2041 2012 2051 2091 1918 1745 1381 1291 1269 1655 1889 1586 1801 1714
0 0 0 0 0 0 0 0 0 7 98 185 253 141 41 42 0 1 53 322 445 912 1226 1151 1093 1227 1634 1757 1967 2077 2017 2081 2004 1999 1925 1610 1511 1442 1434 1557 1617 1610 1807 1729
0 0 0 0 0 0 0 0 0 0 0 0 24 116 82 28 0 10 27 125 599 834 994 1318 1477 1559 1745 1853 2089 2154 2148 2058 2049 2203 1836 1792 1803 1694 1490 1642 1603 1521 1589 1222
0 0 0 0 0 0 0 0 0 0 0 0 0 22 18 0 0 0 0 3 251 763 1011 1151 1510 1673 1748 1913 2181 2176 2152 2153 2258 2402 2084 2026 2072 1733 1642 1582 1527 1774 1692 1774
0 0 0 21 0 0 0 0 0 0 0 0 0 0 0 0 0 0 0 25 433 719 1121 1323 1514 1815 1916 1910 2100 2225 2221 2372 2412 2480 2426 2258 2022 1755 1700 1541 1591 1712 1677 1675
0 6 16 1 3 12 0 0 0 0 20 25 22 0 0 0 14 35 61 466 459 796 1236 1372 1588 1734 2012 1957 2265 2377 2277 2431 2539 2507 2159 2499 1934 1673 1633 1580 1588 1535 1510 1600
0 0 0 23 1 13 37 0 0 0 43 4 75 437 797 929 443 61 952 724 885 850 959 1191 1121 1593 1914 2115 2181 2337 2415 2548 2643 2611 2294 2215 2197 1657 1516 1716 1761 1564 1576 1541
0 0 0 0 0 5 0 0 0 13 37 0 21 464 1065 1424 1509 1239 772 861 1139 1442 1469 1457 1534 1694 1957 2188 2211 2541 2570 2625 2756 2693 3030 2531 2089 2068 1743 1585 1568 1602 1505 1017
0 0 0 0 0 0 0 0 30 0 0 0 8 318 914 1470 1596 1531 1150 844 1355 1716 1910 1767 1812 1884 2060 2249 2401 2687 3024 2918 3269 3140 2908 2587 2263 1649 1691 2038 1847 1899 1547 1459
0 0 0 0 0 0 0 0 0 0 0 0 0 167 678 1235 1540 1651 1823 1443 1005 1336 1975 2027 1985 2058 2203 2379 2460 2834 3396 3645 3303 2748 2736 2578 2359 1873 2081 1989 1935 1850 1786 1276
0 0 0 0 0 0 0 0 0 0 0 0 0 0 3 349 912 1117 1373 1587 1625 1248 1564 2071 2205 2333 2457 2525 2605 2772 2995 3158 2937 2818 2858 2660 2332 1726 2124 1657 1690 1496 1310 1176
0 0 0 0 0 0 0 0 0 0 0 0 0 0 0 0 123 385 765 1107 1494 1747 1648 1789 2116 2397 2641 2608 2661 2619 3004 3016 2909 2697 2504 2438 2205 1509 1673 1667 1282 1281 1479 940
0 0 0 0 0 0 0 0 0 0 0 0 0 0 0 0 0 0 33 336 573 1136 1906 2123 1951 2167 2466 2636 2710 2677 2681 2933 2773 2668 2373 2098 2035 1878 1532 1369 1188 361 410 349